Time,TemperatureF,DewpointF,PressureIn,WindDirection,WindDirectionDegrees,WindSpeedMPH,WindSpeedGustMPH,Humidity,HourlyPrecipIn,Conditions,Clouds,dailyrainin,SoftwareType,DateUTC
2013-12-27 00:12:00,20.0,18.0,29.96,WNW,292,3.0,3.0,97,0.00,,,0.00,TxWx,2013-12-27 05:12:00,
2013-12-27 00:18:00,20.0,18.0,29.97,SSW,202,1.0,1.0,97,0.00,,,0.00,TxWx,2013-12-27 05:18:00,
2013-12-27 00:23:00,20.0,18.0,29.96,SW,225,2.0,3.0,97,0.00,,,0.00,TxWx,2013-12-27 05:23:00,
2013-12-27 00:29:00,20.0,18.0,29.97,NW,315,5.0,6.0,97,0.00,,,0.00,TxWx,2013-12-27 05:29:00,
2013-12-27 00:34:00,20.0,18.0,29.96,West,270,2.0,3.0,97,0.00,,,0.00,TxWx,2013-12-27 05:34:00,
2013-12-27 00:39:00,20.0,18.0,29.96,SSW,202,1.0,2.0,97,0.00,,,0.00,TxWx,2013-12-27 05:39:00,
2013-12-27 00:44:00,20.0,18.0,29.96,WSW,247,3.0,4.0,97,0.00,,,0.00,TxWx,2013-12-27 05:44:00,
2013-12-27 00:49:00,20.0,18.0,29.96,SW,225,3.0,3.0,97,0.00,,,0.00,TxWx,2013-12-27 05:49:00,
2013-12-27 00:54:00,20.0,18.0,29.95,NW,315,3.0,3.0,97,0.00,,,0.00,TxWx,2013-12-27 05:54:00,
2013-12-27 00:59:00,20.0,18.0,29.96,SW,225,1.0,1.0,97,0.00,,,0.00,TxWx,2013-12-27 05:59:00,
2013-12-27 01:04:00,20.0,18.0,29.96,SW,225,1.0,1.0,97,0.00,,,0.00,TxWx,2013-12-27 06:04:00,
2013-12-27 01:09:00,20.0,18.0,29.96,South,180,0.0,1.0,97,0.00,,,0.00,TxWx,2013-12-27 06:09:00,
2013-12-27 01:11:00,21.0,19.0,29.98,NNW,337,3.0,4.0,96,0.00,,,0.00,TxWx,2013-12-27 06:11:00,
2013-12-27 01:13:00,21.0,19.0,29.98,West,270,5.0,6.0,96,0.00,,,0.00,TxWx,2013-12-27 06:13:00,
2013-12-27 01:14:00,20.0,18.0,29.95,WSW,247,1.0,3.0,97,0.00,,,0.00,TxWx,2013-12-27 06:14:00,
2013-12-27 01:15:00,21.0,19.0,29.98,West,270,3.0,3.0,96,0.00,,,0.00,TxWx,2013-12-27 06:15:00,
2013-12-27 01:17:00,21.0,19.0,29.97,West,270,5.0,5.0,96,0.00,,,0.00,TxWx,2013-12-27 06:17:00,
2013-12-27 01:19:00,20.0,18.0,29.96,WNW,292,1.0,1.0,97,0.00,,,0.00,TxWx,2013-12-27 06:19:00,
2013-12-27 01:20:00,21.0,19.0,29.97,West,270,3.0,3.0,95,0.00,,,0.00,TxWx,2013-12-27 06:20:00,
2013-12-27 01:21:00,21.0,19.0,29.97,SSW,202,2.0,5.0,95,0.00,,,0.00,TxWx,2013-12-27 06:21:00,
2013-12-27 01:22:00,21.0,19.0,29.97,West,270,3.0,4.0,95,0.00,,,0.00,TxWx,2013-12-27 06:22:00,
2013-12-27 01:23:00,21.0,19.0,29.97,NW,315,3.0,3.0,95,0.00,,,0.00,TxWx,2013-12-27 06:23:00,
2013-12-27 01:24:00,20.0,18.0,29.96,WSW,247,1.0,1.0,97,0.00,,,0.00,TxWx,2013-12-27 06:24:00,
2013-12-27 01:25:00,21.0,19.0,29.97,WSW,247,4.0,4.0,95,0.00,,,0.00,TxWx,2013-12-27 06:25:00,
2013-12-27 01:26:00,21.0,19.0,29.97,SSW,202,2.0,3.0,95,0.00,,,0.00,TxWx,2013-12-27 06:26:00,
2013-12-27 01:28:00,21.0,19.0,29.97,WNW,292,4.0,5.0,95,0.00,,,0.00,TxWx,2013-12-27 06:28:00,
2013-12-27 01:29:00,20.0,18.0,29.96,SSW,202,1.0,1.0,97,0.00,,,0.00,TxWx,2013-12-27 06:29:00,
2013-12-27 01:32:00,21.0,18.0,29.97,West,270,4.0,5.0,93,0.00,,,0.00,TxWx,2013-12-27 06:32:00,
2013-12-27 01:33:00,21.0,18.0,29.97,West,270,4.0,5.0,93,0.00,,,0.00,TxWx,2013-12-27 06:33:00,
2013-12-27 01:34:00,20.0,18.0,29.96,SSW,202,1.0,1.0,97,0.00,,,0.00,TxWx,2013-12-27 06:34:00,
2013-12-27 01:39:00,20.0,18.0,29.96,SSW,202,0.0,0.0,97,0.00,,,0.00,TxWx,2013-12-27 06:39:00,
2013-12-27 01:44:00,20.0,18.0,29.97,South,180,0.0,0.0,98,0.00,,,0.00,TxWx,2013-12-27 06:44:00,
2013-12-27 01:49:00,20.0,18.0,29.96,South,180,1.0,2.0,98,0.00,,,0.00,TxWx,2013-12-27 06:49:00,
2013-12-27 01:54:00,20.0,18.0,29.97,SW,225,1.0,1.0,98,0.00,,,0.00,TxWx,2013-12-27 06:54:00,
2013-12-27 01:59:00,20.0,18.0,29.97,SSW,202,1.0,1.0,98,0.00,,,0.00,TxWx,2013-12-27 06:59:00,
2013-12-27 02:04:00,20.0,18.0,29.97,SSE,157,1.0,1.0,98,0.00,,,0.00,TxWx,2013-12-27 07:04:00,
2013-12-27 02:09:00,20.0,18.0,29.97,SSW,202,0.0,1.0,98,0.00,,,0.00,TxWx,2013-12-27 07:09:00,
2013-12-27 02:14:00,20.0,18.0,29.97,SSW,202,0.0,0.0,98,0.00,,,0.00,TxWx,2013-12-27 07:14:00,
2013-12-27 02:19:00,20.0,18.0,29.97,SSW,202,1.0,1.0,98,0.00,,,0.00,TxWx,2013-12-27 07:19:00,
2013-12-27 02:24:00,20.0,18.0,29.97,SSW,202,0.0,0.0,98,0.00,,,0.00,TxWx,2013-12-27 07:24:00,
2013-12-27 02:29:00,20.0,19.0,29.97,SSW,202,0.0,0.0,98,0.00,,,0.00,TxWx,2013-12-27 07:29:00,
2013-12-27 02:34:00,20.0,19.0,29.97,SSW,202,0.0,1.0,98,0.00,,,0.00,TxWx,2013-12-27 07:34:00,
2013-12-27 02:39:00,20.0,19.0,29.97,SSE,157,0.0,1.0,98,0.00,,,0.00,TxWx,2013-12-27 07:39:00,
2013-12-27 02:44:00,20.0,19.0,29.97,SSW,202,0.0,1.0,98,0.00,,,0.00,TxWx,2013-12-27 07:44:00,
2013-12-27 02:49:00,20.0,19.0,29.98,SSW,202,0.0,1.0,98,0.00,,,0.00,TxWx,2013-12-27 07:49:00,
2013-12-27 02:54:00,20.0,19.0,29.98,SSW,202,0.0,0.0,98,0.00,,,0.00,TxWx,2013-12-27 07:54:00,
2013-12-27 02:59:00,20.0,19.0,29.97,South,180,0.0,0.0,98,0.00,,,0.00,TxWx,2013-12-27 07:59:00,
2013-12-27 03:04:00,20.0,19.0,29.97,South,180,0.0,0.0,98,0.00,,,0.00,TxWx,2013-12-27 08:04:00,
2013-12-27 03:09:00,20.0,19.0,29.97,South,180,0.0,1.0,98,0.00,,,0.00,TxWx,2013-12-27 08:09:00,
2013-12-27 03:14:00,20.0,19.0,29.97,South,180,0.0,0.0,98,0.00,,,0.00,TxWx,2013-12-27 08:14:00,
2013-12-27 03:19:00,20.0,19.0,29.97,SSW,202,0.0,1.0,98,0.00,,,0.00,TxWx,2013-12-27 08:19:00,
2013-12-27 03:24:00,20.0,19.0,29.96,West,270,1.0,1.0,99,0.00,,,0.00,TxWx,2013-12-27 08:24:00,
2013-12-27 03:29:00,20.0,19.0,29.96,SW,225,1.0,1.0,99,0.00,,,0.00,TxWx,2013-12-27 08:29:00,
2013-12-27 03:34:00,20.0,19.0,29.97,SSW,202,1.0,1.0,99,0.00,,,0.00,TxWx,2013-12-27 08:34:00,
2013-12-27 03:39:00,20.0,19.0,29.97,SSW,202,1.0,1.0,99,0.00,,,0.00,TxWx,2013-12-27 08:39:00,
2013-12-27 03:44:00,20.0,19.0,29.96,SSW,202,1.0,3.0,99,0.00,,,0.00,TxWx,2013-12-27 08:44:00,
2013-12-27 03:49:00,20.0,19.0,29.97,WNW,292,2.0,3.0,99,0.00,,,0.00,TxWx,2013-12-27 08:49:00,
2013-12-27 03:54:00,20.0,19.0,29.97,WSW,247,2.0,3.0,99,0.00,,,0.00,TxWx,2013-12-27 08:54:00,
2013-12-27 03:59:00,20.0,19.0,29.96,WSW,247,3.0,3.0,99,0.00,,,0.00,TxWx,2013-12-27 08:59:00,
2013-12-27 04:04:00,20.0,19.0,29.96,SSW,202,3.0,3.0,99,0.00,,,0.00,TxWx,2013-12-27 09:04:00,
2013-12-27 04:09:00,20.0,19.0,29.96,WSW,247,1.0,2.0,99,0.00,,,0.00,TxWx,2013-12-27 09:09:00,
2013-12-27 04:14:00,20.0,19.0,29.96,SW,225,3.0,3.0,99,0.00,,,0.00,TxWx,2013-12-27 09:14:00,
2013-12-27 04:19:00,20.0,19.0,29.96,WSW,247,3.0,3.0,99,0.00,,,0.00,TxWx,2013-12-27 09:19:00,
2013-12-27 04:24:00,20.0,19.0,29.97,SW,225,3.0,6.0,99,0.00,,,0.00,TxWx,2013-12-27 09:24:00,
2013-12-27 04:29:00,20.0,19.0,29.97,SW,225,3.0,5.0,99,0.00,,,0.00,TxWx,2013-12-27 09:29:00,
2013-12-27 04:34:00,21.0,20.0,29.97,WNW,292,5.0,6.0,99,0.00,,,0.00,TxWx,2013-12-27 09:34:00,
2013-12-27 04:39:00,21.0,20.0,29.96,WSW,247,5.0,5.0,99,0.00,,,0.00,TxWx,2013-12-27 09:39:00,
2013-12-27 04:44:00,21.0,20.0,29.97,West,270,2.0,3.0,98,0.00,,,0.00,TxWx,2013-12-27 09:44:00,
2013-12-27 04:49:00,21.0,20.0,29.97,SW,225,6.0,9.0,98,0.00,,,0.00,TxWx,2013-12-27 09:49:00,
2013-12-27 04:54:00,21.0,19.0,29.97,West,270,5.0,6.0,98,0.00,,,0.00,TxWx,2013-12-27 09:54:00,
2013-12-27 04:59:00,21.0,19.0,29.97,West,270,5.0,5.0,97,0.00,,,0.00,TxWx,2013-12-27 09:59:00,
2013-12-27 05:04:00,21.0,19.0,29.97,SSW,202,3.0,3.0,97,0.00,,,0.00,TxWx,2013-12-27 10:04:00,
2013-12-27 05:09:00,20.0,18.0,29.97,West,270,5.0,6.0,97,0.00,,,0.00,TxWx,2013-12-27 10:09:00,
2013-12-27 05:14:00,20.0,18.0,29.97,WNW,292,5.0,6.0,97,0.00,,,0.00,TxWx,2013-12-27 10:14:00,
2013-12-27 05:19:00,20.0,18.0,29.97,SSW,202,2.0,4.0,97,0.00,,,0.00,TxWx,2013-12-27 10:19:00,
2013-12-27 05:24:00,20.0,18.0,29.97,North,0,3.0,5.0,96,0.00,,,0.00,TxWx,2013-12-27 10:24:00,
2013-12-27 05:29:00,20.0,18.0,29.97,SSW,202,3.0,3.0,96,0.00,,,0.00,TxWx,2013-12-27 10:29:00,
2013-12-27 05:34:00,20.0,18.0,29.97,WNW,292,4.0,4.0,96,0.00,,,0.00,TxWx,2013-12-27 10:34:00,
2013-12-27 05:39:00,20.0,18.0,29.97,West,270,4.0,6.0,96,0.00,,,0.00,TxWx,2013-12-27 10:39:00,
2013-12-27 05:44:00,20.0,18.0,29.97,West,270,3.0,6.0,96,0.00,,,0.00,TxWx,2013-12-27 10:44:00,
2013-12-27 05:49:00,20.0,18.0,29.97,WSW,247,3.0,3.0,95,0.00,,,0.00,TxWx,2013-12-27 10:49:00,
2013-12-27 05:54:00,20.0,18.0,29.97,West,270,3.0,4.0,95,0.00,,,0.00,TxWx,2013-12-27 10:54:00,
2013-12-27 05:59:00,20.0,18.0,29.97,SW,225,3.0,3.0,95,0.00,,,0.00,TxWx,2013-12-27 10:59:00,
2013-12-27 06:04:00,20.0,18.0,29.98,WSW,247,3.0,4.0,95,0.00,,,0.00,TxWx,2013-12-27 11:04:00,
2013-12-27 06:09:00,20.0,18.0,29.97,SW,225,3.0,4.0,95,0.00,,,0.00,TxWx,2013-12-27 11:09:00,
2013-12-27 06:14:00,20.0,18.0,29.97,WNW,292,4.0,8.0,95,0.00,,,0.00,TxWx,2013-12-27 11:14:00,
2013-12-27 06:19:00,20.0,18.0,29.98,WNW,292,3.0,5.0,95,0.00,,,0.00,TxWx,2013-12-27 11:19:00,
2013-12-27 06:24:00,20.0,18.0,29.98,SW,225,4.0,4.0,94,0.00,,,0.00,TxWx,2013-12-27 11:24:00,
2013-12-27 06:29:00,20.0,18.0,29.98,SSW,202,1.0,2.0,94,0.00,,,0.00,TxWx,2013-12-27 11:29:00,
2013-12-27 06:34:00,20.0,17.0,29.98,WSW,247,5.0,6.0,94,0.00,,,0.00,TxWx,2013-12-27 11:34:00,
2013-12-27 06:39:00,20.0,16.0,29.98,West,270,4.0,4.0,94,0.00,,,0.00,TxWx,2013-12-27 11:39:00,
2013-12-27 06:44:00,19.0,16.0,29.98,West,270,6.0,7.0,94,0.00,,,0.00,TxWx,2013-12-27 11:44:00,
2013-12-27 06:49:00,19.0,16.0,29.98,WSW,247,11.0,11.0,93,0.00,,,0.00,TxWx,2013-12-27 11:49:00,
2013-12-27 06:54:00,19.0,16.0,29.98,SSW,202,5.0,6.0,93,0.00,,,0.00,TxWx,2013-12-27 11:54:00,
2013-12-27 06:59:00,19.0,16.0,29.98,WNW,292,4.0,4.0,93,0.00,,,0.00,TxWx,2013-12-27 11:59:00,
2013-12-27 07:04:00,19.0,16.0,29.99,SW,225,3.0,3.0,93,0.00,,,0.00,TxWx,2013-12-27 12:04:00,
2013-12-27 07:09:00,19.0,16.0,29.99,WNW,292,5.0,5.0,93,0.00,,,0.00,TxWx,2013-12-27 12:09:00,
2013-12-27 07:14:00,19.0,16.0,29.98,West,270,6.0,8.0,93,0.00,,,0.00,TxWx,2013-12-27 12:14:00,
2013-12-27 07:19:00,19.0,16.0,29.99,NNW,337,3.0,5.0,93,0.00,,,0.00,TxWx,2013-12-27 12:19:00,
2013-12-27 07:24:00,19.0,16.0,29.99,SW,225,2.0,5.0,93,0.00,,,0.00,TxWx,2013-12-27 12:24:00,
2013-12-27 07:29:00,19.0,16.0,29.99,West,270,3.0,3.0,93,0.00,,,0.00,TxWx,2013-12-27 12:29:00,
2013-12-27 07:34:00,19.0,16.0,29.99,West,270,5.0,7.0,93,0.00,,,0.00,TxWx,2013-12-27 12:34:00,
2013-12-27 07:39:00,19.0,16.0,29.99,WNW,292,4.0,4.0,93,0.00,,,0.00,TxWx,2013-12-27 12:39:00,
2013-12-27 07:44:00,19.0,16.0,29.99,West,270,3.0,3.0,93,0.00,,,0.00,TxWx,2013-12-27 12:44:00,
2013-12-27 07:49:00,19.0,16.0,29.99,WSW,247,5.0,6.0,93,0.00,,,0.00,TxWx,2013-12-27 12:49:00,
2013-12-27 07:54:00,19.0,16.0,29.99,WSW,247,3.0,4.0,93,0.00,,,0.00,TxWx,2013-12-27 12:54:00,
2013-12-27 07:59:00,19.0,16.0,29.99,WNW,292,3.0,6.0,93,0.00,,,0.00,TxWx,2013-12-27 12:59:00,
2013-12-27 08:04:00,19.0,16.0,29.99,WSW,247,4.0,5.0,93,0.00,,,0.00,TxWx,2013-12-27 13:04:00,
2013-12-27 08:09:00,19.0,16.0,29.99,West,270,3.0,4.0,94,0.00,,,0.00,TxWx,2013-12-27 13:09:00,
2013-12-27 08:10:00,22.0,20.0,29.98,West,270,2.0,3.0,98,0.00,,,0.00,TxWx,2013-12-27 13:10:00,
2013-12-27 08:11:00,22.0,20.0,29.98,South,180,3.0,4.0,98,0.00,,,0.00,TxWx,2013-12-27 13:11:00,
2013-12-27 08:12:00,22.0,20.0,29.98,West,270,3.0,3.0,97,0.00,,,0.00,TxWx,2013-12-27 13:12:00,
2013-12-27 08:14:00,19.0,16.0,29.99,West,270,3.0,3.0,93,0.00,,,0.00,TxWx,2013-12-27 13:14:00,
2013-12-27 08:16:00,22.0,20.0,29.98,WSW,247,6.0,7.0,97,0.00,,,0.00,TxWx,2013-12-27 13:16:00,
2013-12-27 08:18:00,22.0,20.0,29.98,WNW,292,4.0,5.0,97,0.00,,,0.00,TxWx,2013-12-27 13:18:00,
2013-12-27 08:19:00,19.0,16.0,29.99,NW,315,4.0,5.0,93,0.00,,,0.00,TxWx,2013-12-27 13:19:00,
2013-12-27 08:21:00,22.0,20.0,29.98,WSW,247,2.0,4.0,97,0.00,,,0.00,TxWx,2013-12-27 13:21:00,
2013-12-27 08:22:00,22.0,20.0,29.98,WNW,292,5.0,7.0,97,0.00,,,0.00,TxWx,2013-12-27 13:22:00,
2013-12-27 08:23:00,22.0,20.0,29.98,South,180,3.0,5.0,97,0.00,,,0.00,TxWx,2013-12-27 13:23:00,
2013-12-27 08:24:00,19.0,16.0,29.99,SW,225,3.0,6.0,93,0.00,,,0.00,TxWx,2013-12-27 13:24:00,
2013-12-27 08:26:00,22.0,20.0,29.98,WSW,247,4.0,8.0,96,0.00,,,0.00,TxWx,2013-12-27 13:26:00,
2013-12-27 08:27:00,22.0,20.0,29.98,West,270,6.0,7.0,96,0.00,,,0.00,TxWx,2013-12-27 13:27:00,
2013-12-27 08:28:00,22.0,20.0,29.99,NW,315,2.0,2.0,96,0.00,,,0.00,TxWx,2013-12-27 13:28:00,
2013-12-27 08:29:00,19.0,16.0,29.99,West,270,3.0,3.0,93,0.00,,,0.00,TxWx,2013-12-27 13:29:00,
2013-12-27 08:30:00,22.0,20.0,29.98,WNW,292,7.0,8.0,96,0.00,,,0.00,TxWx,2013-12-27 13:30:00,
2013-12-27 08:34:00,19.0,16.0,30.00,West,270,3.0,4.0,93,0.00,,,0.00,TxWx,2013-12-27 13:34:00,
2013-12-27 08:39:00,19.0,16.0,29.99,SW,225,3.0,5.0,93,0.00,,,0.00,TxWx,2013-12-27 13:39:00,
2013-12-27 08:44:00,19.0,16.0,29.99,West,270,3.0,5.0,93,0.00,,,0.00,TxWx,2013-12-27 13:44:00,
2013-12-27 08:49:00,19.0,16.0,29.99,West,270,3.0,3.0,93,0.00,,,0.00,TxWx,2013-12-27 13:49:00,
2013-12-27 08:54:00,19.0,16.0,30.00,WSW,247,2.0,2.0,93,0.00,,,0.00,TxWx,2013-12-27 13:54:00,
2013-12-27 08:59:00,19.0,16.0,30.00,West,270,3.0,4.0,94,0.00,,,0.00,TxWx,2013-12-27 13:59:00,
2013-12-27 09:00:00,22.0,19.0,30.00,NW,315,3.0,5.0,93,0.00,,,0.00,TxWx,2013-12-27 14:00:00,
2013-12-27 09:02:00,22.0,19.0,30.00,West,270,12.0,12.0,92,0.00,,,0.00,TxWx,2013-12-27 14:02:00,
2013-12-27 09:03:00,22.0,19.0,30.00,West,270,13.0,14.0,92,0.00,,,0.00,TxWx,2013-12-27 14:03:00,
2013-12-27 09:04:00,20.0,17.0,30.00,WSW,247,2.0,3.0,94,0.00,,,0.00,TxWx,2013-12-27 14:04:00,
2013-12-27 09:07:00,22.0,19.0,30.00,West,270,7.0,8.0,92,0.00,,,0.00,TxWx,2013-12-27 14:07:00,
2013-12-27 09:08:00,22.0,19.0,30.00,West,270,5.0,6.0,92,0.00,,,0.00,TxWx,2013-12-27 14:08:00,
2013-12-27 09:09:00,20.0,17.0,30.00,West,270,5.0,6.0,94,0.00,,,0.00,TxWx,2013-12-27 14:09:00,
2013-12-27 09:10:00,22.0,19.0,30.00,WSW,247,8.0,9.0,91,0.00,,,0.00,TxWx,2013-12-27 14:10:00,
2013-12-27 09:11:00,22.0,19.0,30.00,WSW,247,5.0,6.0,91,0.00,,,0.00,TxWx,2013-12-27 14:11:00,
2013-12-27 09:13:00,22.0,19.0,30.00,NW,315,7.0,11.0,91,0.00,,,0.00,TxWx,2013-12-27 14:13:00,
2013-12-27 09:14:00,20.0,17.0,30.00,WSW,247,3.0,4.0,94,0.00,,,0.00,TxWx,2013-12-27 14:14:00,
2013-12-27 09:17:00,22.0,19.0,30.00,West,270,18.0,19.0,91,0.00,,,0.00,TxWx,2013-12-27 14:17:00,
2013-12-27 09:18:00,22.0,19.0,30.00,West,270,5.0,11.0,91,0.00,,,0.00,TxWx,2013-12-27 14:18:00,
2013-12-27 09:19:00,20.0,17.0,30.00,West,270,3.0,3.0,94,0.00,,,0.00,TxWx,2013-12-27 14:19:00,
2013-12-27 09:24:00,20.0,17.0,30.00,WNW,292,3.0,4.0,94,0.00,,,0.00,TxWx,2013-12-27 14:24:00,
2013-12-27 09:29:00,20.0,17.0,30.00,NNW,337,5.0,6.0,94,0.00,,,0.00,TxWx,2013-12-27 14:29:00,
2013-12-27 09:34:00,20.0,17.0,30.00,NW,315,5.0,7.0,94,0.00,,,0.00,TxWx,2013-12-27 14:34:00,
2013-12-27 09:39:00,20.0,17.0,30.00,SW,225,5.0,5.0,94,0.00,,,0.00,TxWx,2013-12-27 14:39:00,
2013-12-27 09:44:00,20.0,18.0,30.00,West,270,4.0,5.0,94,0.00,,,0.00,TxWx,2013-12-27 14:44:00,
2013-12-27 09:49:00,20.0,18.0,30.00,SW,225,2.0,3.0,95,0.00,,,0.00,TxWx,2013-12-27 14:49:00,
2013-12-27 09:54:00,20.0,18.0,30.00,NW,315,3.0,5.0,95,0.00,,,0.00,TxWx,2013-12-27 14:54:00,
2013-12-27 09:59:00,20.0,18.0,30.00,WNW,292,4.0,5.0,95,0.00,,,0.00,TxWx,2013-12-27 14:59:00,
2013-12-27 10:03:00,22.0,18.0,30.00,West,270,6.0,8.0,89,0.00,,,0.00,TxWx,2013-12-27 15:03:00,
2013-12-27 10:04:00,20.0,18.0,30.00,WNW,292,1.0,1.0,96,0.00,,,0.00,TxWx,2013-12-27 15:04:00,
2013-12-27 10:05:00,22.0,18.0,30.00,WNW,292,6.0,7.0,89,0.00,,,0.00,TxWx,2013-12-27 15:05:00,
2013-12-27 10:06:00,22.0,18.0,29.99,West,270,6.0,8.0,89,0.00,,,0.00,TxWx,2013-12-27 15:06:00,
2013-12-27 10:07:00,22.0,18.0,29.99,West,270,3.0,3.0,89,0.00,,,0.00,TxWx,2013-12-27 15:07:00,
2013-12-27 10:08:00,22.0,18.0,30.00,WNW,292,5.0,7.0,89,0.00,,,0.00,TxWx,2013-12-27 15:08:00,
2013-12-27 10:09:00,20.0,18.0,30.00,SSW,202,0.0,1.0,96,0.00,,,0.00,TxWx,2013-12-27 15:09:00,
2013-12-27 10:10:00,22.0,18.0,30.00,West,270,4.0,5.0,89,0.00,,,0.00,TxWx,2013-12-27 15:10:00,
2013-12-27 10:12:00,22.0,18.0,29.99,West,270,5.0,5.0,89,0.00,,,0.00,TxWx,2013-12-27 15:12:00,
2013-12-27 10:13:00,22.0,18.0,29.99,WSW,247,5.0,5.0,89,0.00,,,0.00,TxWx,2013-12-27 15:13:00,
2013-12-27 10:14:00,20.0,18.0,30.00,WSW,247,5.0,5.0,96,0.00,,,0.00,TxWx,2013-12-27 15:14:00,
2013-12-27 10:15:00,22.0,18.0,29.99,WSW,247,3.0,5.0,89,0.00,,,0.00,TxWx,2013-12-27 15:15:00,
2013-12-27 10:16:00,22.0,18.0,29.99,WNW,292,8.0,8.0,89,0.00,,,0.00,TxWx,2013-12-27 15:16:00,
2013-12-27 10:17:00,22.0,18.0,29.99,WSW,247,1.0,3.0,89,0.00,,,0.00,TxWx,2013-12-27 15:17:00,
2013-12-27 10:18:00,22.0,18.0,29.99,SSW,202,4.0,6.0,89,0.00,,,0.00,TxWx,2013-12-27 15:18:00,
2013-12-27 10:19:00,20.0,18.0,30.00,NW,315,3.0,4.0,96,0.00,,,0.00,TxWx,2013-12-27 15:19:00,
2013-12-27 10:20:00,22.0,18.0,29.99,West,270,7.0,8.0,89,0.00,,,0.00,TxWx,2013-12-27 15:20:00,
2013-12-27 10:21:00,22.0,18.0,29.99,WNW,292,7.0,10.0,89,0.00,,,0.00,TxWx,2013-12-27 15:21:00,
2013-12-27 10:22:00,22.0,18.0,29.99,WNW,292,5.0,5.0,89,0.00,,,0.00,TxWx,2013-12-27 15:22:00,
2013-12-27 10:23:00,22.0,18.0,29.99,West,270,4.0,5.0,89,0.00,,,0.00,TxWx,2013-12-27 15:23:00,
2013-12-27 10:24:00,20.0,18.0,30.00,WNW,292,4.0,4.0,96,0.00,,,0.00,TxWx,2013-12-27 15:24:00,
2013-12-27 10:25:00,22.0,18.0,29.99,SW,225,2.0,3.0,89,0.00,,,0.00,TxWx,2013-12-27 15:25:00,
2013-12-27 10:26:00,22.0,18.0,29.99,WSW,247,3.0,3.0,89,0.00,,,0.00,TxWx,2013-12-27 15:26:00,
2013-12-27 10:29:00,20.0,18.0,30.00,West,270,3.0,4.0,97,0.00,,,0.00,TxWx,2013-12-27 15:29:00,
2013-12-27 10:34:00,20.0,18.0,29.99,WSW,247,1.0,3.0,97,0.00,,,0.00,TxWx,2013-12-27 15:34:00,
2013-12-27 10:39:00,20.0,18.0,29.99,South,180,1.0,2.0,97,0.00,,,0.00,TxWx,2013-12-27 15:39:00,
2013-12-27 10:44:00,20.0,18.0,29.99,SE,135,1.0,3.0,97,0.00,,,0.00,TxWx,2013-12-27 15:44:00,
2013-12-27 10:49:00,20.0,18.0,29.99,West,270,3.0,4.0,97,0.00,,,0.00,TxWx,2013-12-27 15:49:00,
2013-12-27 10:54:00,21.0,19.0,29.98,West,270,3.0,5.0,97,0.00,,,0.00,TxWx,2013-12-27 15:54:00,
2013-12-27 10:59:00,21.0,19.0,29.98,WNW,292,1.0,2.0,97,0.00,,,0.00,TxWx,2013-12-27 15:59:00,
2013-12-27 11:04:00,21.0,19.0,29.98,WNW,292,6.0,7.0,96,0.00,,,0.00,TxWx,2013-12-27 16:04:00,
2013-12-27 11:09:00,20.0,18.0,29.98,NW,315,3.0,4.0,96,0.00,,,0.00,TxWx,2013-12-27 16:09:00,
2013-12-27 11:14:00,21.0,19.0,29.98,SW,225,3.0,5.0,96,0.00,,,0.00,TxWx,2013-12-27 16:14:00,
2013-12-27 11:19:00,21.0,19.0,29.97,WNW,292,5.0,6.0,96,0.00,,,0.00,TxWx,2013-12-27 16:19:00,
2013-12-27 11:24:00,21.0,19.0,29.97,West,270,2.0,3.0,95,0.00,,,0.00,TxWx,2013-12-27 16:24:00,
2013-12-27 11:29:00,21.0,19.0,29.97,West,270,6.0,8.0,94,0.00,,,0.00,TxWx,2013-12-27 16:29:00,
2013-12-27 11:34:00,21.0,18.0,29.97,SW,225,3.0,3.0,93,0.00,,,0.00,TxWx,2013-12-27 16:34:00,
2013-12-27 11:39:00,21.0,18.0,29.97,WNW,292,5.0,5.0,92,0.00,,,0.00,TxWx,2013-12-27 16:39:00,
2013-12-27 11:44:00,21.0,18.0,29.97,West,270,4.0,5.0,92,0.00,,,0.00,TxWx,2013-12-27 16:44:00,
2013-12-27 11:49:00,21.0,18.0,29.97,WSW,247,3.0,5.0,91,0.00,,,0.00,TxWx,2013-12-27 16:49:00,
2013-12-27 11:54:00,21.0,18.0,29.97,WNW,292,5.0,6.0,91,0.00,,,0.00,TxWx,2013-12-27 16:54:00,
2013-12-27 11:59:00,21.0,18.0,29.96,West,270,4.0,5.0,90,0.00,,,0.00,TxWx,2013-12-27 16:59:00,
2013-12-27 12:04:00,21.0,18.0,29.96,West,270,3.0,5.0,90,0.00,,,0.00,TxWx,2013-12-27 17:04:00,
2013-12-27 12:09:00,21.0,18.0,29.95,WSW,247,3.0,6.0,90,0.00,,,0.00,TxWx,2013-12-27 17:09:00,
2013-12-27 12:14:00,22.0,19.0,29.95,WSW,247,3.0,3.0,90,0.00,,,0.00,TxWx,2013-12-27 17:14:00,
2013-12-27 12:19:00,22.0,19.0,29.95,WNW,292,3.0,3.0,90,0.00,,,0.00,TxWx,2013-12-27 17:19:00,
2013-12-27 12:24:00,22.0,18.0,29.95,West,270,3.0,6.0,90,0.00,,,0.00,TxWx,2013-12-27 17:24:00,
2013-12-27 12:29:00,22.0,18.0,29.95,WNW,292,3.0,3.0,89,0.00,,,0.00,TxWx,2013-12-27 17:29:00,
2013-12-27 12:34:00,22.0,18.0,29.95,West,270,2.0,2.0,89,0.00,,,0.00,TxWx,2013-12-27 17:34:00,
2013-12-27 12:39:00,22.0,18.0,29.95,SW,225,3.0,4.0,89,0.00,,,0.00,TxWx,2013-12-27 17:39:00,
2013-12-27 12:44:00,22.0,18.0,29.95,WNW,292,3.0,5.0,90,0.00,,,0.00,TxWx,2013-12-27 17:44:00,
2013-12-27 12:49:00,22.0,18.0,29.95,NW,315,4.0,7.0,89,0.00,,,0.00,TxWx,2013-12-27 17:49:00,
2013-12-27 12:54:00,22.0,18.0,29.95,SE,135,3.0,5.0,90,0.00,,,0.00,TxWx,2013-12-27 17:54:00,
2013-12-27 12:59:00,22.0,18.0,29.95,West,270,5.0,7.0,90,0.00,,,0.00,TxWx,2013-12-27 17:59:00,
2013-12-27 13:04:00,22.0,19.0,29.94,WNW,292,4.0,5.0,90,0.00,,,0.00,TxWx,2013-12-27 18:04:00,
2013-12-27 13:09:00,22.0,19.0,29.94,West,270,4.0,5.0,90,0.00,,,0.00,TxWx,2013-12-27 18:09:00,
2013-12-27 13:14:00,22.0,19.0,29.94,SW,225,2.0,3.0,90,0.00,,,0.00,TxWx,2013-12-27 18:14:00,
2013-12-27 13:18:00,23.0,20.0,29.94,SW,225,3.0,5.0,90,0.00,,,0.00,TxWx,2013-12-27 18:18:00,
2013-12-27 13:23:00,23.0,19.0,29.93,West,270,5.0,6.0,90,0.00,,,0.00,TxWx,2013-12-27 18:23:00,
2013-12-27 13:28:00,23.0,19.0,29.93,West,270,3.0,4.0,89,0.00,,,0.00,TxWx,2013-12-27 18:28:00,
2013-12-27 13:33:00,23.0,19.0,29.93,SE,135,1.0,1.0,89,0.00,,,0.00,TxWx,2013-12-27 18:33:00,
2013-12-27 13:38:00,23.0,19.0,29.93,WSW,247,5.0,8.0,88,0.00,,,0.00,TxWx,2013-12-27 18:38:00,
2013-12-27 13:43:00,23.0,19.0,29.93,SW,225,5.0,5.0,88,0.00,,,0.00,TxWx,2013-12-27 18:43:00,
2013-12-27 13:48:00,23.0,19.0,29.93,SSW,202,5.0,8.0,88,0.00,,,0.00,TxWx,2013-12-27 18:48:00,
2013-12-27 13:53:00,23.0,19.0,29.93,SSW,202,6.0,6.0,88,0.00,,,0.00,TxWx,2013-12-27 18:53:00,
2013-12-27 13:58:00,23.0,19.0,29.93,NNW,337,6.0,6.0,88,0.00,,,0.00,TxWx,2013-12-27 18:58:00,
2013-12-27 14:00:00,16.0,14.0,29.93,NNE,22,3.0,3.0,94,0.00,,,0.00,TxWx,2013-12-27 19:00:00,
2013-12-27 14:01:00,16.0,13.0,29.93,East,90,1.0,2.0,94,0.00,,,0.00,TxWx,2013-12-27 19:01:00,
2013-12-27 14:02:00,16.0,13.0,29.93,North,0,3.0,3.0,94,0.00,,,0.00,TxWx,2013-12-27 19:02:00,
2013-12-27 14:03:00,23.0,19.0,29.92,West,270,6.0,7.0,88,0.00,,,0.00,TxWx,2013-12-27 19:03:00,
2013-12-27 14:04:00,16.0,13.0,29.93,ENE,67,1.0,2.0,94,0.00,,,0.00,TxWx,2013-12-27 19:04:00,
2013-12-27 14:05:00,16.0,13.0,29.93,South,180,2.0,2.0,94,0.00,,,0.00,TxWx,2013-12-27 19:05:00,
2013-12-27 14:06:00,16.0,13.0,29.93,SSE,157,0.0,1.0,94,0.00,,,0.00,TxWx,2013-12-27 19:06:00,
2013-12-27 14:07:00,16.0,13.0,29.93,SSW,202,0.0,0.0,94,0.00,,,0.00,TxWx,2013-12-27 19:07:00,
2013-12-27 14:08:00,23.0,19.0,29.92,WNW,292,7.0,11.0,88,0.00,,,0.00,TxWx,2013-12-27 19:08:00,
2013-12-27 14:09:00,16.0,13.0,29.93,SW,225,0.0,1.0,94,0.00,,,0.00,TxWx,2013-12-27 19:09:00,
2013-12-27 14:10:00,16.0,14.0,29.92,SSE,157,1.0,2.0,94,0.00,,,0.00,TxWx,2013-12-27 19:10:00,
2013-12-27 14:11:00,16.0,14.0,29.92,SSW,202,1.0,1.0,94,0.00,,,0.00,TxWx,2013-12-27 19:11:00,
2013-12-27 14:12:00,16.0,13.0,29.92,SE,135,1.0,1.0,94,0.00,,,0.00,TxWx,2013-12-27 19:12:00,
2013-12-27 14:13:00,23.0,19.0,29.93,WNW,292,5.0,5.0,88,0.00,,,0.00,TxWx,2013-12-27 19:13:00,
2013-12-27 14:14:00,16.0,14.0,29.92,SSW,202,1.0,2.0,94,0.00,,,0.00,TxWx,2013-12-27 19:14:00,
2013-12-27 14:15:00,15.0,13.0,29.92,ESE,112,1.0,1.0,94,0.00,,,0.00,TxWx,2013-12-27 19:15:00,
2013-12-27 14:16:00,15.0,13.0,29.92,SSE,157,1.0,1.0,94,0.00,,,0.00,TxWx,2013-12-27 19:16:00,
2013-12-27 14:17:00,15.0,13.0,29.92,SW,225,1.0,1.0,94,0.00,,,0.00,TxWx,2013-12-27 19:17:00,
2013-12-27 14:18:00,23.0,19.0,29.93,West,270,3.0,6.0,88,0.00,,,0.00,TxWx,2013-12-27 19:18:00,
2013-12-27 14:19:00,15.0,13.0,29.92,SSE,157,1.0,1.0,94,0.00,,,0.00,TxWx,2013-12-27 19:19:00,
2013-12-27 14:20:00,15.0,13.0,29.92,NNW,337,1.0,1.0,94,0.00,,,0.00,TxWx,2013-12-27 19:20:00,
2013-12-27 14:21:00,15.0,13.0,29.92,NNE,22,1.0,2.0,94,0.00,,,0.00,TxWx,2013-12-27 19:21:00,
2013-12-27 14:22:00,15.0,13.0,29.92,South,180,1.0,1.0,94,0.00,,,0.00,TxWx,2013-12-27 19:22:00,
2013-12-27 14:23:00,23.0,19.0,29.93,WSW,247,5.0,8.0,89,0.00,,,0.00,TxWx,2013-12-27 19:23:00,
2013-12-27 14:24:00,15.0,13.0,29.92,SW,225,1.0,1.0,94,0.00,,,0.00,TxWx,2013-12-27 19:24:00,
2013-12-27 14:25:00,15.0,13.0,29.92,SSE,157,0.0,0.0,94,0.00,,,0.00,TxWx,2013-12-27 19:25:00,
2013-12-27 14:26:00,15.0,13.0,29.92,East,90,1.0,1.0,94,0.00,,,0.00,TxWx,2013-12-27 19:26:00,
2013-12-27 14:28:00,22.0,19.0,29.93,SW,225,3.0,4.0,90,0.00,,,0.00,TxWx,2013-12-27 19:28:00,
2013-12-27 14:29:00,14.0,12.0,29.92,East,90,1.0,2.0,95,0.00,,,0.00,TxWx,2013-12-27 19:29:00,
2013-12-27 14:31:00,14.0,12.0,29.91,SSW,202,0.0,1.0,95,0.00,,,0.00,TxWx,2013-12-27 19:31:00,
2013-12-27 14:33:00,22.0,19.0,29.93,SW,225,5.0,6.0,91,0.00,,,0.00,TxWx,2013-12-27 19:33:00,
2013-12-27 14:38:00,22.0,19.0,29.94,WSW,247,1.0,3.0,92,0.00,,,0.00,TxWx,2013-12-27 19:38:00,
2013-12-27 14:43:00,22.0,19.0,29.94,West,270,4.0,6.0,93,0.00,,,0.00,TxWx,2013-12-27 19:43:00,
2013-12-27 14:48:00,22.0,19.0,29.94,SW,225,1.0,2.0,93,0.00,,,0.00,TxWx,2013-12-27 19:48:00,
2013-12-27 14:53:00,22.0,19.0,29.94,SSE,157,1.0,2.0,93,0.00,,,0.00,TxWx,2013-12-27 19:53:00,
2013-12-27 14:58:00,22.0,19.0,29.94,WSW,247,2.0,2.0,94,0.00,,,0.00,TxWx,2013-12-27 19:58:00,
2013-12-27 15:03:00,22.0,20.0,29.94,SSW,202,3.0,3.0,94,0.00,,,0.00,TxWx,2013-12-27 20:03:00,
2013-12-27 15:08:00,22.0,20.0,29.94,SW,225,1.0,2.0,94,0.00,,,0.00,TxWx,2013-12-27 20:08:00,
2013-12-27 15:13:00,22.0,20.0,29.94,SW,225,3.0,3.0,94,0.00,,,0.00,TxWx,2013-12-27 20:13:00,
2013-12-27 15:18:00,22.0,20.0,29.94,WSW,247,1.0,1.0,95,0.00,,,0.00,TxWx,2013-12-27 20:18:00,
2013-12-27 15:23:00,22.0,20.0,29.94,SSW,202,2.0,3.0,95,0.00,,,0.00,TxWx,2013-12-27 20:23:00,
2013-12-27 15:28:00,22.0,20.0,29.94,West,270,3.0,3.0,95,0.00,,,0.00,TxWx,2013-12-27 20:28:00,
2013-12-27 15:33:00,22.0,20.0,29.94,SW,225,4.0,5.0,95,0.00,,,0.00,TxWx,2013-12-27 20:33:00,
2013-12-27 15:38:00,22.0,20.0,29.94,West,270,4.0,5.0,95,0.00,,,0.00,TxWx,2013-12-27 20:38:00,
2013-12-27 15:43:00,22.0,20.0,29.94,WNW,292,3.0,3.0,95,0.00,,,0.00,TxWx,2013-12-27 20:43:00,
2013-12-27 15:48:00,22.0,20.0,29.94,WSW,247,1.0,2.0,96,0.00,,,0.00,TxWx,2013-12-27 20:48:00,
2013-12-27 15:53:00,22.0,20.0,29.94,NW,315,2.0,3.0,96,0.00,,,0.00,TxWx,2013-12-27 20:53:00,
2013-12-27 15:58:00,22.0,20.0,29.94,WNW,292,2.0,3.0,96,0.00,,,0.00,TxWx,2013-12-27 20:58:00,
2013-12-27 16:03:00,22.0,20.0,29.95,SW,225,1.0,2.0,96,0.00,,,0.00,TxWx,2013-12-27 21:03:00,
2013-12-27 16:08:00,22.0,20.0,29.95,NW,315,3.0,3.0,97,0.00,,,0.00,TxWx,2013-12-27 21:08:00,
2013-12-27 16:13:00,22.0,20.0,29.95,SW,225,1.0,2.0,97,0.00,,,0.00,TxWx,2013-12-27 21:13:00,
2013-12-27 16:18:00,22.0,20.0,29.95,West,270,2.0,3.0,97,0.00,,,0.00,TxWx,2013-12-27 21:18:00,
2013-12-27 16:23:00,22.0,20.0,29.95,WSW,247,3.0,4.0,97,0.00,,,0.00,TxWx,2013-12-27 21:23:00,
2013-12-27 16:28:00,22.0,20.0,29.95,SSW,202,1.0,1.0,97,0.00,,,0.00,TxWx,2013-12-27 21:28:00,
2013-12-27 16:33:00,22.0,20.0,29.95,SSW,202,1.0,2.0,98,0.00,,,0.00,TxWx,2013-12-27 21:33:00,
2013-12-27 16:38:00,22.0,20.0,29.95,SSW,202,0.0,1.0,98,0.00,,,0.00,TxWx,2013-12-27 21:38:00,
2013-12-27 16:43:00,22.0,20.0,29.95,WSW,247,5.0,6.0,98,0.00,,,0.00,TxWx,2013-12-27 21:43:00,
2013-12-27 16:48:00,22.0,20.0,29.95,West,270,2.0,2.0,98,0.00,,,0.00,TxWx,2013-12-27 21:48:00,
2013-12-27 16:53:00,22.0,20.0,29.95,WSW,247,2.0,3.0,98,0.00,,,0.00,TxWx,2013-12-27 21:53:00,
2013-12-27 16:58:00,22.0,21.0,29.95,West,270,2.0,2.0,98,0.00,,,0.00,TxWx,2013-12-27 21:58:00,
2013-12-27 17:03:00,22.0,21.0,29.96,SW,225,3.0,3.0,98,0.00,,,0.00,TxWx,2013-12-27 22:03:00,
2013-12-27 17:08:00,22.0,21.0,29.96,SW,225,0.0,1.0,98,0.00,,,0.00,TxWx,2013-12-27 22:08:00,
2013-12-27 17:13:00,22.0,21.0,29.96,West,270,1.0,3.0,99,0.00,,,0.00,TxWx,2013-12-27 22:13:00,
2013-12-27 17:18:00,22.0,21.0,29.96,WNW,292,2.0,3.0,99,0.00,,,0.00,TxWx,2013-12-27 22:18:00,
2013-12-27 17:23:00,22.0,21.0,29.96,West,270,2.0,3.0,99,0.00,,,0.00,TxWx,2013-12-27 22:23:00,
2013-12-27 17:28:00,22.0,21.0,29.97,WNW,292,3.0,5.0,99,0.00,,,0.00,TxWx,2013-12-27 22:28:00,
2013-12-27 17:33:00,22.0,21.0,29.97,West,270,5.0,7.0,99,0.00,,,0.00,TxWx,2013-12-27 22:33:00,
2013-12-27 17:38:00,22.0,21.0,29.97,WSW,247,2.0,3.0,99,0.00,,,0.00,TxWx,2013-12-27 22:38:00,
2013-12-27 17:43:00,22.0,21.0,29.97,WSW,247,3.0,4.0,99,0.00,,,0.00,TxWx,2013-12-27 22:43:00,
2013-12-27 17:48:00,22.0,21.0,29.97,West,270,10.0,11.0,99,0.00,,,0.00,TxWx,2013-12-27 22:48:00,
2013-12-27 17:53:00,22.0,21.0,29.98,WNW,292,2.0,2.0,98,0.00,,,0.00,TxWx,2013-12-27 22:53:00,
2013-12-27 17:58:00,22.0,21.0,29.98,SSW,202,5.0,5.0,98,0.00,,,0.00,TxWx,2013-12-27 22:58:00,
2013-12-27 18:03:00,22.0,20.0,29.98,SSE,157,1.0,1.0,98,0.00,,,0.00,TxWx,2013-12-27 23:03:00,
2013-12-27 18:08:00,22.0,20.0,29.98,SW,225,1.0,2.0,98,0.00,,,0.00,TxWx,2013-12-27 23:08:00,
2013-12-27 18:13:00,22.0,20.0,29.98,West,270,3.0,5.0,97,0.00,,,0.00,TxWx,2013-12-27 23:13:00,
2013-12-27 18:18:00,22.0,20.0,29.98,NNE,22,2.0,4.0,97,0.00,,,0.00,TxWx,2013-12-27 23:18:00,
2013-12-27 18:24:00,22.0,20.0,29.98,SE,135,3.0,3.0,97,0.00,,,0.00,TxWx,2013-12-27 23:24:00,
2013-12-27 18:29:00,22.0,20.0,29.98,NW,315,4.0,6.0,96,0.00,,,0.00,TxWx,2013-12-27 23:29:00,
2013-12-27 18:34:00,22.0,20.0,29.99,NW,315,3.0,3.0,95,0.00,,,0.00,TxWx,2013-12-27 23:34:00,
2013-12-27 18:39:00,22.0,20.0,29.99,WSW,247,8.0,10.0,95,0.00,,,0.00,TxWx,2013-12-27 23:39:00,
2013-12-27 18:44:00,22.0,19.0,29.99,West,270,4.0,4.0,94,0.00,,,0.00,TxWx,2013-12-27 23:44:00,
2013-12-27 18:49:00,22.0,19.0,29.99,WNW,292,8.0,10.0,94,0.00,,,0.00,TxWx,2013-12-27 23:49:00,
2013-12-27 18:54:00,22.0,19.0,30.00,WSW,247,7.0,7.0,93,0.00,,,0.00,TxWx,2013-12-27 23:54:00,
2013-12-27 18:59:00,22.0,19.0,30.00,WSW,247,9.0,13.0,93,0.00,,,0.00,TxWx,2013-12-27 23:59:00,
2013-12-27 19:04:00,22.0,19.0,30.00,West,270,4.0,5.0,92,0.00,,,0.00,TxWx,2013-12-28 00:04:00,
2013-12-27 19:09:00,22.0,19.0,30.00,West,270,9.0,9.0,91,0.00,,,0.00,TxWx,2013-12-28 00:09:00,
2013-12-27 19:14:00,22.0,19.0,30.00,WNW,292,9.0,9.0,91,0.00,,,0.00,TxWx,2013-12-28 00:14:00,
2013-12-27 19:19:00,22.0,19.0,30.00,WNW,292,9.0,9.0,91,0.00,,,0.00,TxWx,2013-12-28 00:19:00,
2013-12-27 19:24:00,22.0,19.0,30.00,WSW,247,6.0,10.0,90,0.00,,,0.00,TxWx,2013-12-28 00:24:00,
2013-12-27 19:29:00,22.0,18.0,30.00,SSW,202,1.0,3.0,90,0.00,,,0.00,TxWx,2013-12-28 00:29:00,
2013-12-27 19:34:00,22.0,18.0,30.00,WSW,247,8.0,13.0,90,0.00,,,0.00,TxWx,2013-12-28 00:34:00,
2013-12-27 19:39:00,22.0,18.0,30.00,WNW,292,13.0,14.0,89,0.00,,,0.00,TxWx,2013-12-28 00:39:00,
2013-12-27 19:44:00,22.0,18.0,30.00,WSW,247,5.0,6.0,89,0.00,,,0.00,TxWx,2013-12-28 00:44:00,
2013-12-27 19:49:00,22.0,18.0,30.00,West,270,8.0,8.0,89,0.00,,,0.00,TxWx,2013-12-28 00:49:00,
2013-12-27 19:54:00,22.0,18.0,30.00,WNW,292,3.0,4.0,89,0.00,,,0.00,TxWx,2013-12-28 00:54:00,
2013-12-27 19:59:00,22.0,18.0,30.00,WSW,247,1.0,3.0,89,0.00,,,0.00,TxWx,2013-12-28 00:59:00,
2013-12-27 20:03:00,19.0,19.0,29.81,SSW,202,0.0,1.0,100,0.00,,,0.00,TxWx,2013-12-28 01:03:00,
2013-12-27 20:04:00,19.0,19.0,29.80,ESE,112,1.0,1.0,100,0.00,,,0.00,TxWx,2013-12-28 01:04:00,
2013-12-27 20:05:00,22.0,18.0,29.99,North,0,4.0,4.0,89,0.00,,,0.00,TxWx,2013-12-28 01:05:00,
2013-12-27 20:06:00,19.0,19.0,29.81,NNW,337,3.0,3.0,100,0.00,,,0.00,TxWx,2013-12-28 01:06:00,
2013-12-27 20:07:00,19.0,19.0,29.81,WNW,292,1.0,1.0,100,0.00,,,0.00,TxWx,2013-12-28 01:07:00,
2013-12-27 20:08:00,19.0,19.0,29.81,East,90,1.0,2.0,100,0.00,,,0.00,TxWx,2013-12-28 01:08:00,
2013-12-27 20:09:00,19.0,19.0,29.80,East,90,1.0,1.0,100,0.00,,,0.00,TxWx,2013-12-28 01:09:00,
2013-12-27 20:10:00,22.0,18.0,30.00,SSW,202,3.0,6.0,89,0.00,,,0.00,TxWx,2013-12-28 01:10:00,
2013-12-27 20:12:00,19.0,19.0,29.81,NW,315,1.0,2.0,100,0.00,,,0.00,TxWx,2013-12-28 01:12:00,
2013-12-27 20:13:00,19.0,19.0,29.81,South,180,1.0,1.0,100,0.00,,,0.00,TxWx,2013-12-28 01:13:00,
2013-12-27 20:15:00,22.0,18.0,29.99,WSW,247,3.0,3.0,89,0.00,,,0.00,TxWx,2013-12-28 01:15:00,
2013-12-27 20:16:00,19.0,19.0,29.81,South,180,0.0,0.0,100,0.00,,,0.00,TxWx,2013-12-28 01:16:00,
2013-12-27 20:17:00,19.0,19.0,29.81,SW,225,1.0,1.0,100,0.00,,,0.00,TxWx,2013-12-28 01:17:00,
2013-12-27 20:18:00,19.0,19.0,29.81,SSE,157,1.0,1.0,100,0.00,,,0.00,TxWx,2013-12-28 01:18:00,
2013-12-27 20:19:00,19.0,19.0,29.81,SW,225,1.0,1.0,100,0.00,,,0.00,TxWx,2013-12-28 01:19:00,
2013-12-27 20:20:00,22.0,18.0,29.99,WSW,247,3.0,3.0,89,0.00,,,0.00,TxWx,2013-12-28 01:20:00,
2013-12-27 20:21:00,19.0,19.0,29.81,North,0,1.0,1.0,100,0.00,,,0.00,TxWx,2013-12-28 01:21:00,
2013-12-27 20:22:00,19.0,19.0,29.81,WSW,247,1.0,1.0,100,0.00,,,0.00,TxWx,2013-12-28 01:22:00,
2013-12-27 20:25:00,22.0,18.0,29.99,WSW,247,4.0,4.0,89,0.00,,,0.00,TxWx,2013-12-28 01:25:00,
2013-12-27 20:30:00,22.0,18.0,29.99,West,270,6.0,8.0,89,0.00,,,0.00,TxWx,2013-12-28 01:30:00,
2013-12-27 20:35:00,21.0,17.0,29.99,WNW,292,3.0,3.0,89,0.00,,,0.00,TxWx,2013-12-28 01:35:00,
2013-12-27 20:40:00,21.0,17.0,29.99,SW,225,1.0,1.0,89,0.00,,,0.00,TxWx,2013-12-28 01:40:00,
2013-12-27 20:45:00,21.0,17.0,29.99,West,270,2.0,3.0,89,0.00,,,0.00,TxWx,2013-12-28 01:45:00,
2013-12-27 20:50:00,21.0,17.0,29.98,SW,225,1.0,1.0,89,0.00,,,0.00,TxWx,2013-12-28 01:50:00,
2013-12-27 20:55:00,21.0,17.0,29.98,SSW,202,0.0,1.0,89,0.00,,,0.00,TxWx,2013-12-28 01:55:00,
2013-12-27 21:00:00,21.0,17.0,29.98,SSW,202,0.0,0.0,90,0.00,,,0.00,TxWx,2013-12-28 02:00:00,
2013-12-27 21:05:00,21.0,17.0,29.99,SSW,202,1.0,2.0,90,0.00,,,0.00,TxWx,2013-12-28 02:05:00,
2013-12-27 21:10:00,21.0,17.0,29.98,SSW,202,1.0,1.0,90,0.00,,,0.00,TxWx,2013-12-28 02:10:00,
2013-12-27 21:15:00,21.0,18.0,29.98,SW,225,1.0,1.0,90,0.00,,,0.00,TxWx,2013-12-28 02:15:00,
2013-12-27 21:20:00,21.0,18.0,29.98,SSW,202,1.0,1.0,90,0.00,,,0.00,TxWx,2013-12-28 02:20:00,
2013-12-27 21:25:00,21.0,18.0,29.98,West,270,1.0,3.0,90,0.00,,,0.00,TxWx,2013-12-28 02:25:00,
2013-12-27 21:30:00,21.0,18.0,29.98,SW,225,0.0,0.0,90,0.00,,,0.00,TxWx,2013-12-28 02:30:00,
2013-12-27 21:35:00,21.0,18.0,29.98,South,180,0.0,1.0,91,0.00,,,0.00,TxWx,2013-12-28 02:35:00,
2013-12-27 21:40:00,21.0,18.0,29.98,SSW,202,1.0,1.0,91,0.00,,,0.00,TxWx,2013-12-28 02:40:00,
2013-12-27 21:45:00,21.0,18.0,29.98,South,180,0.0,1.0,91,0.00,,,0.00,TxWx,2013-12-28 02:45:00,
2013-12-27 21:49:00,21.0,18.0,29.98,SSW,202,1.0,1.0,91,0.00,,,0.00,TxWx,2013-12-28 02:49:00,
2013-12-27 21:54:00,21.0,18.0,29.98,SSW,202,0.0,0.0,91,0.00,,,0.00,TxWx,2013-12-28 02:54:00,
2013-12-27 21:59:00,21.0,18.0,29.98,WSW,247,1.0,1.0,91,0.00,,,0.00,TxWx,2013-12-28 02:59:00,
2013-12-27 22:04:00,21.0,18.0,29.97,WSW,247,1.0,2.0,91,0.00,,,0.00,TxWx,2013-12-28 03:04:00,
2013-12-27 22:09:00,21.0,18.0,29.98,SSW,202,1.0,1.0,91,0.00,,,0.00,TxWx,2013-12-28 03:09:00,
2013-12-27 22:14:00,21.0,18.0,29.97,South,180,0.0,0.0,91,0.00,,,0.00,TxWx,2013-12-28 03:14:00,
2013-12-27 22:19:00,21.0,18.0,29.97,South,180,1.0,1.0,91,0.00,,,0.00,TxWx,2013-12-28 03:19:00,
2013-12-27 22:24:00,21.0,18.0,29.97,South,180,0.0,0.0,91,0.00,,,0.00,TxWx,2013-12-28 03:24:00,
2013-12-27 22:29:00,21.0,18.0,29.97,South,180,0.0,0.0,91,0.00,,,0.00,TxWx,2013-12-28 03:29:00,
2013-12-27 22:34:00,21.0,18.0,29.97,South,180,0.0,0.0,92,0.00,,,0.00,TxWx,2013-12-28 03:34:00,
2013-12-27 22:39:00,20.0,17.0,29.97,South,180,1.0,1.0,92,0.00,,,0.00,TxWx,2013-12-28 03:39:00,
2013-12-27 22:44:00,20.0,17.0,29.96,SSW,202,0.0,1.0,92,0.00,,,0.00,TxWx,2013-12-28 03:44:00,
2013-12-27 22:49:00,20.0,17.0,29.95,SE,135,1.0,1.0,92,0.00,,,0.00,TxWx,2013-12-28 03:49:00,
2013-12-27 22:54:00,20.0,17.0,29.95,SE,135,2.0,3.0,92,0.00,,,0.00,TxWx,2013-12-28 03:54:00,
2013-12-27 22:59:00,20.0,17.0,29.95,SSE,157,1.0,1.0,92,0.00,,,0.00,TxWx,2013-12-28 03:59:00,
2013-12-27 23:04:00,20.0,17.0,29.95,SSW,202,0.0,0.0,92,0.00,,,0.00,TxWx,2013-12-28 04:04:00,
2013-12-27 23:09:00,19.0,16.0,29.95,North,0,1.0,2.0,92,0.00,,,0.00,TxWx,2013-12-28 04:09:00,
2013-12-27 23:14:00,19.0,16.0,29.95,South,180,0.0,0.0,92,0.00,,,0.00,TxWx,2013-12-28 04:14:00,
2013-12-27 23:19:00,19.0,16.0,29.95,South,180,0.0,1.0,92,0.00,,,0.00,TxWx,2013-12-28 04:19:00,
2013-12-27 23:24:00,18.0,15.0,29.94,South,180,0.0,0.0,92,0.00,,,0.00,TxWx,2013-12-28 04:24:00,
2013-12-27 23:29:00,18.0,15.0,29.94,South,180,0.0,0.0,92,0.00,,,0.00,TxWx,2013-12-28 04:29:00,
2013-12-27 23:34:00,18.0,15.0,29.94,South,180,1.0,1.0,93,0.00,,,0.00,TxWx,2013-12-28 04:34:00,
2013-12-27 23:39:00,17.0,14.0,29.94,SW,225,1.0,2.0,93,0.00,,,0.00,TxWx,2013-12-28 04:39:00,
2013-12-27 23:44:00,17.0,14.0,29.94,South,180,1.0,1.0,93,0.00,,,0.00,TxWx,2013-12-28 04:44:00,
2013-12-27 23:49:00,17.0,14.0,29.94,SSE,157,1.0,1.0,93,0.00,,,0.00,TxWx,2013-12-28 04:49:00,
2013-12-27 23:54:00,17.0,14.0,29.94,WSW,247,1.0,1.0,94,0.00,,,0.00,TxWx,2013-12-28 04:54:00,
2013-12-27 23:59:00,17.0,14.0,29.93,SW,225,0.0,0.0,94,0.00,,,0.00,TxWx,2013-12-28 04:59:00,